• Processing (Info)

  • MPEC 2019-W30 : 2017 MV2

    The following Minor Planet Electronic Circular may be linked-to from your own Web pages, but must not otherwise be redistributed electronically.

    A form allowing access to any MPEC is at the bottom of this page.


    Read MPEC 2019-W29 Read MPEC 2019-W31


    M.P.E.C. 2019-W30                             Issued 2019 November 18, 02:00 UT
    
         The Minor Planet Electronic Circulars contain information on unusual
             minor planets and routine data on comets.  They are published
        on behalf of Division F of the International Astronomical Union by the
              Minor Planet Center, Smithsonian Astrophysical Observatory,
                              Cambridge, MA 02138, U.S.A.
    
                 Prepared using the Tamkin Foundation Computer Network
    
                                  MPC@CFA.HARVARD.EDU
                URL https://www.minorplanetcenter.net/    ISSN 1523-6714
    
                                    2017 MV2                                 
    
    
                               Revision to MPEC 2017-M56                            
    
    Additional Observations:
         K17M02V  C2010 11 27.49812605 37 19.404+06 07 25.73         21.8 GVEW030F51
         K17M02V  C2010 11 27.51006005 37 18.231+06 07 25.20         22.2 GVEW030F51
         K17M02V  C2010 12 05.42655105 24 28.686+06 10 26.49         23.2 GVEW030F51
         K17M02V  C2010 12 05.43792805 24 27.504+06 10 27.65         22.7 GVEW030F51
         K17M02V  C2010 12 05.44132105 24 27.140+06 10 27.92         22.3 GVEW030F51
         K17M02V  C2010 12 05.45258205 24 26.014+06 10 29.09         21.3 GVEW030F51
    
    Observer details:
    F51 Pan-STARRS 1, Haleakala.  Observers J. Bulger, K. Chambers, T. Lowe, A. 
       Schultz, M. Willman.  Measurers S. Chastel, M. Huber, Y. Ramanjooloo, R. 
       Wainscoat, R. Weryk.  1.8-m Ritchey-Chretien + CCD.
    
    First and last observations above in comparison with prediction:
    Residuals in seconds of arc (or two decimals in degrees), reference and Delta-T
    101127 F51 0.05- 0.01-    101205 F51 0.05- 0.01-    MPO428358   -0.00 days
    
    Orbital elements:
    2017 MV2                                            PHA, Earth MOID = 0.0445 AU
    Epoch 2019 Apr. 27.0 TT = JDT 2458600.5                 Veres
    M 164.49865              (2000.0)            P               Q
    n   0.27763442     Peri.  167.50704     +0.94207679     +0.33500275
    a   2.3271293      Node   172.85683     -0.31787783     +0.90728355
    e   0.5499485      Incl.    7.51488     -0.10698135     +0.25418440
    P   3.55           H   20.8           G   0.15           U   0
    Residuals in seconds of arc
    101127 F51  0.4-  0.2+    170701 691  1.0-  1.2+    170925 T05  0.2+  0.5-
    101127 F51  0.3+  0.3+    170702 691  0.2+  0.0     170925 T05  0.4-  0.2-
    101205 F51  0.6+  0.2+    170702 691  0.4+  0.1+    170927 T08  0.5-  0.0
    101205 F51  0.0   0.4+    170703 691  0.0   0.3-    170927 T08  0.5-  0.5+
    101205 F51  0.4-  0.3+    170703 691  0.4+  0.6-    170927 T08  0.0   1.1+
    101205 F51  0.4-  0.5+    170703 691  0.0   0.3-    170927 T08  0.3-  0.1+
    170621 F51  0.2+  0.1+    170714 204  1.4+  1.5+    171001 T08  0.1+  1.1-
    170621 F51  0.0   0.0     170714 204  0.4+  0.6+    171001 T08  0.2+  0.5+
    170621 F51  0.0   0.2-    170718 H21  0.1-  0.7+    171001 T08  0.7+  0.4-
    170621 F51  0.1+  0.0     170718 H21  0.4+  1.0+    171001 T08  0.3-  0.4+
    170622 H21  0.5-  0.0     170721 H21  0.6+  1.0+    171007 T05  0.3+  0.1-
    170622 658 (0.7+  2.0-)   170721 H21  0.6+  0.8+    171007 T05  0.0   0.5-
    170622 658  0.4+  0.5+    170729 H21  0.2-  0.2-    171007 T05  0.1+  0.0
    170622 658  0.3+  0.6+    170729 H21  0.0   0.4-    171007 T05  0.4+  0.1+
    170622 568  0.1+  0.1-    170730 H21  0.2-  0.2-    171011 T05  0.2-  0.2-
    170622 568  0.0   0.1-    170730 H21  0.1+  0.4-    171011 T05  0.5-  0.3+
    170622 568  0.1+  0.1-    170730 H21  0.1-  0.8-    171011 T05  0.3-  0.5+
    170622 H21  0.8-  0.2-    170812 H21  0.3-  0.2-    171011 T05  0.4-  0.0
    170622 H21  0.7-  0.3-    170812 H21  0.0   0.4-    171011 T05  0.1-  0.6+
    170622 I52  0.4-  0.3-    170812 H21  0.0   0.4-    171012 204  0.1+  0.2-
    170622 I52  0.2-  0.2-    170815 H21  0.5-  1.3+    171012 204  0.3+  0.0
    170622 I52  0.2-  0.0     170815 H21  0.3-  1.3+    171012 204  0.1-  0.1-
    170622 I52  0.1-  0.2-    170815 H21  0.4-  1.2+    171014 703  0.0   0.1-
    170623 I52  0.4+  0.8-    170816 H21  0.5-  0.0     171014 703  0.3-  0.9-
    170623 I52  0.8-  0.7+    170816 H21  0.5-  0.1-    171014 703  0.1+  0.1+
    170623 658  0.7-  0.3+    170819 291  0.1-  0.6+    171017 T08  0.2-  0.4+
    170623 658  0.8-  0.1+    170819 291  0.3+  0.0     171017 T08  0.5+  0.4-
    170623 658  0.7-  0.3+    170819 291  0.2+  0.2-    171017 T08  0.7+  0.2+
    170624 691  0.4-  0.4+    170823 H21  0.2-  0.1-    171017 T08  0.7-  0.0
    170624 691  0.1+  0.1-    170823 H21  0.4-  0.1-    171023 703  0.8+  0.3+
    170624 691  0.1-  0.3+    170823 H21  0.0   0.5-    171023 703  0.3-  0.4+
    170624 I93  0.3+  0.5+    170824 H21  0.2+  0.2-    171023 703  0.2-  0.2-
    170624 I93  0.1-  0.2+    170824 H21  0.3+  0.1-    171023 703  0.2-  0.6-
    170624 I93  0.0   0.2-    170824 H21  0.2-  0.2-    171023 T05  0.6-  0.4-
    170625 F51  0.2+  0.1+    170909 H21  0.2-  0.1+    171023 T05  0.2+  0.5+
    170625 F51  0.1+  0.0     170909 H21  0.3-  0.1+    171023 T05  0.4+  0.2-
    170625 F51  0.1+  0.1+    170909 H21  0.2-  0.1-    171023 T05  0.0   0.3-
    170625 F51  0.1+  0.1+    170910 H21  0.0   0.2-    171026 703  1.0+  0.0
    170628 H21  0.6-  0.7-    170910 H21  0.3-  0.5-    171026 703  0.2-  1.0-
    170628 H21  0.4+  0.6+    170910 H21  0.2-  0.3+    171026 703  0.3-  0.4+
    170628 691  0.1-  0.8-    170923 807  0.1+  0.2+    171026 703  0.0   0.2-
    170628 691  0.7-  0.2+    170923 807  0.0   0.0     171113 807  0.0   0.1-
    170628 691  0.1+  0.3+    170923 807  0.2+  0.1-    171113 807  0.4-  0.1-
    170630 691  0.5+  0.1-    170923 807  0.1+  0.1-    171113 807  0.0   0.1+
    170630 691  0.1-  0.5+    170923 807  0.2+  0.2-    171120 G96  0.2-  1.1+
    170630 691  0.2+  0.1+    170923 807  0.2-  0.2-    171120 G96  0.8-  0.9-
    170701 691  1.1+  1.5-    170925 T05  0.2+  0.1-    171120 G96  0.2-  0.0
    170701 691  0.1+  0.3-    170925 T05  0.1+  0.1-    171120 G96  0.3+  0.0
    
    Ephemeris:
    2017 MV2                 a,e,i = 2.33, 0.55, 8                   q = 1.0473
    Date    TT    R. A. (2000) Decl.     Delta      r    Elong.  Phase     V
    2019 10 19    11 56 47.6 +00 15 23   4.3871  3.5177    25.9     7.1    27.3
    ...
    2019 11 03    12 12 23.9 -01 15 23   4.2391  3.4936    36.7     9.8    27.3
    ...
    2019 11 11    12 20 26.1 -02 01 26   4.1443  3.4796    42.5    11.1    27.3
    ...
    2019 11 17    12 26 17.9 -02 34 34   4.0667  3.4686    47.0    12.0    27.3
    2019 11 18    12 27 15.6 -02 39 57   4.0532  3.4667    47.8    12.2    27.3
    2019 11 19    12 28 13.0 -02 45 18   4.0396  3.4648    48.5    12.3    27.3
    ...
    2019 11 25    12 33 51.0 -03 16 29   3.9549  3.4531    53.1    13.2    27.2
    ...
    2019 12 03    12 41 02.1 -03 55 20   3.8344  3.4368    59.3    14.3    27.2
    ...
    2019 12 18    12 53 15.6 -04 57 55   3.5893  3.4039    71.3    15.9    27.1
    
    A. U. Tomatic                (C) Copyright 2019 MPC           M.P.E.C. 2019-W30
    


    Read MPEC 2019-W29 Read MPEC 2019-W31


    MPEC number:

    Enter an MPEC number in one of the following forms:

    • 1997-B01 (the full form)
    • J97B01 (the packed version of the full form)
    • B01 (the abbreviated form)